| time (UTC) | temp F | wind direction | speed knots | gust knots | rain 1hr in | rain 24hr in | rain mn in | humidity % | barometer mb |
| 20260504151021 | 64 | 265 | 2.6 | 8.7 | 0.02 | 0.06 | 0.02 | 93 | 1015.2 |
| 20260504150524 | 64 | 267 | 3.5 | 9.6 | 0.01 | 0.05 | 0.01 | 94 | 1015.2 |
| 20260504141017 | 63 | 311 | 0.0 | 1.7 | 0.01 | 0.04 | 0.00 | 94 | 1014.5 |
| 20260504140511 | 63 | 297 | 0.0 | 1.7 | 0.01 | 0.04 | 0.00 | 94 | 1014.5 |
| 20260504130507 | 63 | 305 | 0.9 | 2.6 | 0.00 | 0.03 | 0.03 | 94 | 1014.9 |
| 20260504110502 | 64 | 278 | 0.0 | 1.7 | 0.03 | 0.03 | 0.03 | 91 | 1015.7 |
| 20260504100602 | 67 | 287 | 1.7 | 8.7 | 0.00 | 0.00 | 0.00 | 81 | 1015.9 |
| 20260504100105 | 68 | 273 | 2.6 | 9.6 | 0.00 | 0.00 | 0.00 | 79 | 1016.0 |
| 20260504081556 | 70 | 253 | 0.9 | 6.1 | 0.00 | 0.00 | 0.00 | 72 | 1014.8 |
| 20260504081057 | 70 | 277 | 1.7 | 7.0 | 0.00 | 0.00 | 0.00 | 72 | 1014.8 |
| 20260504080557 | 71 | 281 | 2.6 | 7.0 | 0.00 | 0.00 | 0.00 | 70 | 1014.8 |
| 20260504050550 | 75 | 270 | 0.0 | 0.0 | 0.00 | 0.00 | 0.00 | 61 | 1014.1 |
| 20260504045549 | 75 | 271 | 0.0 | 0.0 | 0.00 | 0.00 | 0.00 | 63 | 1014.1 |
| 20260504045049 | 75 | 271 | 0.0 | 0.0 | 0.00 | 0.00 | 0.00 | 62 | 1013.9 |
| 20260504044549 | 75 | 271 | 0.0 | 0.0 | 0.00 | 0.00 | 0.00 | 61 | 1014.1 |
| 20260504044048 | 76 | 274 | 0.0 | 1.7 | 0.00 | 0.00 | 0.00 | 62 | 1014.0 |
| 20260504043548 | 76 | 274 | 0.0 | 2.6 | 0.00 | 0.00 | 0.00 | 61 | 1014.0 |
| 20260504043050 | 76 | 274 | 0.9 | 3.5 | 0.00 | 0.00 | 0.00 | 59 | 1014.2 |
| 20260504042548 | 76 | 235 | 0.9 | 3.5 | 0.00 | 0.00 | 0.00 | 59 | 1014.3 |
| 20260504042046 | 76 | 239 | 0.9 | 2.6 | 0.00 | 0.00 | 0.00 | 58 | 1014.3 |
| 20260504041546 | 77 | 205 | 0.0 | 0.9 | 0.00 | 0.00 | 0.00 | 58 | 1014.3 |
| 20260504041045 | 76 | 201 | 0.0 | 1.7 | 0.00 | 0.00 | 0.00 | 61 | 1014.4 |
| 20260504040547 | 76 | 285 | 0.0 | 1.7 | 0.00 | 0.00 | 0.00 | 61 | 1014.4 |
| 20260504040044 | 75 | 221 | 0.9 | 1.7 | 0.00 | 0.00 | 0.00 | 61 | 1014.5 |
| 20260504035543 | 75 | 192 | 0.0 | 1.7 | 0.00 | 0.00 | 0.00 | 62 | 1014.6 |
| 20260504035044 | 75 | 162 | 0.0 | 2.6 | 0.00 | 0.00 | 0.00 | 62 | 1014.7 |
| 20260504034554 | 75 | 160 | 0.0 | 2.6 | 0.00 | 0.00 | 0.00 | 61 | 1014.7 |
| 20260504034043 | 75 | 172 | 0.9 | 2.6 | 0.00 | 0.00 | 0.00 | 61 | 1014.6 |
| 20260504033542 | 75 | 156 | 0.9 | 3.5 | 0.00 | 0.00 | 0.00 | 60 | 1014.6 |
| 20260504033054 | 75 | 241 | 0.9 | 5.2 | 0.00 | 0.00 | 0.00 | 61 | 1014.6 |
| 20260504032544 | 75 | 223 | 1.7 | 6.1 | 0.00 | 0.00 | 0.00 | 60 | 1014.7 |
| 20260504032041 | 76 | 240 | 1.7 | 6.1 | 0.00 | 0.00 | 0.00 | 61 | 1014.8 |
| 20260504031556 | 76 | 224 | 0.0 | 7.0 | 0.00 | 0.00 | 0.00 | 61 | 1014.8 |
| 20260504031039 | 76 | 208 | 2.6 | 7.0 | 0.00 | 0.00 | 0.00 | 60 | 1014.9 |
| 20260504030538 | 76 | 215 | 1.7 | 5.2 | 0.00 | 0.00 | 0.00 | 60 | 1015.0 |
| 20260504030045 | 76 | 192 | 1.7 | 6.1 | 0.00 | 0.00 | 0.00 | 60 | 1015.1 |
| 20260504025538 | 76 | 235 | 1.7 | 5.2 | 0.00 | 0.00 | 0.00 | 59 | 1015.1 |
| 20260504025038 | 76 | 186 | 2.6 | 6.1 | 0.00 | 0.00 | 0.00 | 58 | 1015.1 |
| 20260504024543 | 76 | 277 | 0.9 | 6.1 | 0.00 | 0.00 | 0.00 | 58 | 1015.3 |
| 20260504024037 | 76 | 232 | 0.9 | 7.0 | 0.00 | 0.00 | 0.00 | 57 | 1015.3 |
| 20260504023537 | 77 | 244 | 1.7 | 7.0 | 0.00 | 0.00 | 0.00 | 57 | 1015.2 |
| 20260504023039 | 77 | 221 | 1.7 | 7.8 | 0.00 | 0.00 | 0.00 | 57 | 1015.3 |
| 20260504022537 | 77 | 245 | 3.5 | 7.8 | 0.00 | 0.00 | 0.00 | 56 | 1015.4 |
| 20260504022035 | 77 | 253 | 1.7 | 4.3 | 0.00 | 0.00 | 0.00 | 57 | 1015.5 |
| 20260504021536 | 78 | 278 | 1.7 | 6.1 | 0.00 | 0.00 | 0.00 | 56 | 1015.6 |
| 20260504021034 | 78 | 234 | 1.7 | 6.1 | 0.00 | 0.00 | 0.00 | 58 | 1015.7 |
| 20260504020532 | 77 | 288 | 2.6 | 4.3 | 0.00 | 0.00 | 0.00 | 57 | 1015.8 |
| 20260504020031 | 76 | 301 | 1.7 | 4.3 | 0.00 | 0.00 | 0.00 | 60 | 1015.9 |
| 20260504015530 | 76 | 286 | 0.9 | 4.3 | 0.00 | 0.00 | 0.00 | 59 | 1016.1 |
| 20260504015033 | 76 | 288 | 1.7 | 4.3 | 0.00 | 0.00 | 0.00 | 58 | 1016.1 |
| 20260504014528 | 76 | 330 | 0.9 | 4.3 | 0.00 | 0.00 | 0.00 | 59 | 1016.2 |
| 20260504014030 | 76 | 299 | 1.7 | 7.0 | 0.00 | 0.00 | 0.00 | 60 | 1016.3 |
| 20260504013527 | 75 | 282 | 2.6 | 7.0 | 0.00 | 0.00 | 0.00 | 59 | 1016.4 |
| 20260504013035 | 76 | 279 | 1.7 | 5.2 | 0.00 | 0.00 | 0.00 | 59 | 1016.4 |
| 20260504012526 | 76 | 291 | 0.0 | 3.5 | 0.00 | 0.00 | 0.00 | 61 | 1016.4 |
| 20260504012025 | 76 | 273 | 1.7 | 3.5 | 0.00 | 0.00 | 0.00 | 60 | 1016.5 |
| 20260504011525 | 75 | 290 | 0.0 | 3.5 | 0.00 | 0.00 | 0.00 | 61 | 1016.5 |
| 20260504011025 | 75 | 263 | 0.9 | 7.0 | 0.00 | 0.00 | 0.00 | 61 | 1016.5 |
| 20260504010522 | 74 | 271 | 2.6 | 7.0 | 0.00 | 0.00 | 0.00 | 60 | 1016.6 |
| 20260504010021 | 74 | 322 | 1.7 | 7.0 | 0.00 | 0.00 | 0.00 | 60 | 1016.5 |
| 20260504005519 | 74 | 292 | 1.7 | 7.8 | 0.00 | 0.00 | 0.00 | 61 | 1016.5 |
| 20260504005020 | 74 | 273 | 3.5 | 7.8 | 0.00 | 0.00 | 0.00 | 61 | 1016.6 |
| 20260504004519 | 74 | 256 | 1.7 | 6.1 | 0.00 | 0.00 | 0.00 | 62 | 1016.5 |
| 20260504004017 | 74 | 62 | 1.7 | 6.1 | 0.00 | 0.00 | 0.00 | 65 | 1016.6 |
| 20260504003514 | 73 | 316 | 2.6 | 7.0 | 0.00 | 0.00 | 0.00 | 66 | 1016.7 |
| 20260504003026 | 73 | 238 | 3.5 | 8.7 | 0.00 | 0.00 | 0.00 | 67 | 1016.7 |
| 20260504002512 | 72 | 302 | 2.6 | 8.7 | 0.00 | 0.00 | 0.00 | 66 | 1016.8 |
| 20260504002011 | 72 | 324 | 1.7 | 5.2 | 0.00 | 0.00 | 0.00 | 68 | 1016.8 |
| 20260504001509 | 72 | 274 | 0.9 | 7.0 | 0.00 | 0.00 | 0.00 | 69 | 1016.8 |
| 20260504001009 | 72 | 325 | 3.5 | 7.0 | 0.00 | 0.00 | 0.00 | 69 | 1016.8 |
| 20260504000507 | 72 | 290 | 0.9 | 4.3 | 0.00 | 0.00 | 0.00 | 70 | 1016.8 |
| 20260504000006 | 71 | 268 | 1.7 | 7.0 | 0.00 | 0.00 | 0.00 | 71 | 1016.8 |
| 20260503235504 | 71 | 250 | 2.6 | 7.0 | 0.00 | 0.00 | 0.00 | 71 | 1016.8 |
| 20260503235003 | 70 | 300 | 2.6 | 7.0 | 0.00 | 0.00 | 0.00 | 72 | 1016.8 |
| 20260503234502 | 70 | 284 | 1.7 | 7.0 | 0.00 | 0.00 | 0.00 | 74 | 1016.9 |
| 20260503234101 | 70 | 13 | 3.5 | 7.0 | 0.00 | 0.00 | 0.00 | 74 | 1016.9 |
| 20260503233600 | 69 | 284 | 2.6 | 7.0 | 0.00 | 0.00 | 0.00 | 75 | 1017.0 |
| 20260503233100 | 69 | 299 | 3.5 | 6.1 | 0.00 | 0.00 | 0.00 | 76 | 1017.0 |
| 20260503232558 | 69 | 266 | 2.6 | 7.8 | 0.00 | 0.00 | 0.00 | 76 | 1017.0 |
| 20260503232058 | 69 | 277 | 2.6 | 7.8 | 0.00 | 0.00 | 0.00 | 76 | 1017.0 |
| 20260503231556 | 68 | 296 | 2.6 | 5.2 | 0.00 | 0.00 | 0.00 | 78 | 1017.0 |
| 20260503231055 | 68 | 296 | 2.6 | 6.1 | 0.00 | 0.00 | 0.00 | 78 | 1017.0 |
| 20260503230553 | 68 | 268 | 2.6 | 7.8 | 0.00 | 0.00 | 0.00 | 79 | 1016.9 |
| 20260503230055 | 67 | 286 | 1.7 | 7.8 | 0.00 | 0.00 | 0.00 | 80 | 1016.9 |
| 20260503225551 | 67 | 291 | 2.6 | 7.8 | 0.00 | 0.00 | 0.00 | 81 | 1016.9 |
| 20260503225051 | 67 | 311 | 5.2 | 7.8 | 0.00 | 0.00 | 0.00 | 81 | 1016.9 |
| 20260503224552 | 67 | 278 | 3.5 | 7.0 | 0.00 | 0.00 | 0.00 | 81 | 1016.9 |
| 20260503224049 | 66 | 301 | 3.5 | 7.0 | 0.00 | 0.00 | 0.00 | 82 | 1016.9 |
| 20260503223548 | 66 | 340 | 3.5 | 7.8 | 0.00 | 0.00 | 0.00 | 83 | 1016.9 |
| 20260503223048 | 66 | 300 | 2.6 | 7.8 | 0.00 | 0.00 | 0.00 | 84 | 1016.9 |
| 20260503222548 | 65 | 309 | 2.6 | 7.0 | 0.00 | 0.00 | 0.00 | 85 | 1016.9 |
| 20260503222047 | 65 | 282 | 0.9 | 7.0 | 0.00 | 0.00 | 0.00 | 86 | 1016.9 |
| 20260503221547 | 64 | 328 | 1.7 | 7.0 | 0.00 | 0.00 | 0.00 | 87 | 1016.9 |
| 20260503221047 | 64 | 303 | 1.7 | 7.8 | 0.00 | 0.00 | 0.00 | 88 | 1016.9 |
| 20260503220548 | 63 | 290 | 1.7 | 5.2 | 0.00 | 0.00 | 0.00 | 89 | 1016.9 |
| 20260503220048 | 63 | 299 | 1.7 | 5.2 | 0.00 | 0.00 | 0.00 | 89 | 1016.8 |
| 20260503215547 | 63 | 300 | 1.7 | 4.3 | 0.00 | 0.00 | 0.00 | 90 | 1016.9 |
| 20260503215046 | 62 | 284 | 1.7 | 4.3 | 0.00 | 0.00 | 0.00 | 90 | 1016.9 |
| 20260503214546 | 62 | 334 | 1.7 | 3.5 | 0.00 | 0.00 | 0.00 | 91 | 1016.8 |
| 20260503214046 | 62 | 304 | 0.9 | 3.5 | 0.00 | 0.00 | 0.00 | 91 | 1016.8 |
| 20260503213546 | 61 | 5 | 1.7 | 4.3 | 0.00 | 0.00 | 0.00 | 92 | 1016.7 |
| 20260503213047 | 61 | 331 | 1.7 | 4.3 | 0.00 | 0.00 | 0.00 | 92 | 1016.6 |
| 20260503212545 | 61 | 327 | 0.0 | 0.9 | 0.00 | 0.00 | 0.00 | 91 | 1016.6 |
| 20260503212043 | 61 | 327 | 0.0 | 0.9 | 0.00 | 0.00 | 0.00 | 91 | 1016.5 |
| 20260503211543 | 61 | 39 | 0.0 | 2.6 | 0.00 | 0.00 | 0.00 | 90 | 1016.5 |
| 20260503211042 | 61 | 39 | 0.0 | 2.6 | 0.00 | 0.00 | 0.00 | 90 | 1016.5 |
| 20260503210541 | 61 | 317 | 0.0 | 1.7 | 0.00 | 0.00 | 0.00 | 90 | 1016.3 |
| 20260503210039 | 61 | 317 | 0.0 | 1.7 | 0.00 | 0.00 | 0.00 | 90 | 1016.2 |
| 20260503205538 | 61 | 317 | 0.0 | 2.6 | 0.00 | 0.00 | 0.00 | 90 | 1016.2 |
| 20260503205040 | 61 | 317 | 0.9 | 3.5 | 0.00 | 0.00 | 0.00 | 90 | 1016.2 |
| 20260503204535 | 61 | 337 | 0.0 | 3.5 | 0.00 | 0.00 | 0.00 | 89 | 1016.1 |
| 20260503204033 | 62 | 338 | 0.0 | 2.6 | 0.00 | 0.00 | 0.00 | 89 | 1016.0 |
| 20260503203534 | 62 | 282 | 0.9 | 2.6 | 0.00 | 0.00 | 0.00 | 89 | 1016.0 |
| 20260503203036 | 62 | 311 | 0.0 | 3.5 | 0.00 | 0.00 | 0.00 | 89 | 1015.9 |
| 20260503202532 | 62 | 355 | 0.0 | 3.5 | 0.00 | 0.00 | 0.00 | 89 | 1015.7 |
| 20260503202034 | 62 | 333 | 0.9 | 4.3 | 0.00 | 0.00 | 0.00 | 89 | 1015.7 |
| 20260503201529 | 62 | 319 | 0.9 | 4.3 | 0.00 | 0.00 | 0.00 | 89 | 1015.7 |
| 20260503201029 | 62 | 305 | 0.0 | 4.3 | 0.00 | 0.00 | 0.00 | 89 | 1015.6 |
| 20260503200531 | 62 | 297 | 0.9 | 4.3 | 0.00 | 0.00 | 0.00 | 89 | 1015.6 |
| 20260503200028 | 62 | 331 | 0.9 | 4.3 | 0.00 | 0.00 | 0.00 | 88 | 1015.6 |
| 20260503195527 | 62 | 325 | 1.7 | 4.3 | 0.00 | 0.00 | 0.00 | 88 | 1015.6 |
| 20260503195026 | 62 | 328 | 0.9 | 3.5 | 0.00 | 0.00 | 0.00 | 88 | 1015.6 |
| 20260503194527 | 63 | 355 | 0.0 | 3.5 | 0.00 | 0.00 | 0.00 | 88 | 1015.5 |
| 20260503194026 | 63 | 348 | 0.9 | 3.5 | 0.00 | 0.00 | 0.00 | 88 | 1015.4 |
| 20260503193527 | 63 | 316 | 0.9 | 3.5 | 0.00 | 0.00 | 0.00 | 88 | 1015.3 |
| 20260503193025 | 63 | 355 | 0.9 | 3.5 | 0.00 | 0.00 | 0.00 | 88 | 1015.2 |
| 20260503192524 | 63 | 321 | 0.9 | 3.5 | 0.00 | 0.00 | 0.00 | 88 | 1015.2 |
| 20260503192029 | 63 | 330 | 0.9 | 3.5 | 0.00 | 0.00 | 0.00 | 88 | 1015.1 |
| 20260503191524 | 63 | 326 | 0.9 | 3.5 | 0.00 | 0.00 | 0.00 | 88 | 1015.1 |
| 20260503191024 | 63 | 321 | 1.7 | 3.5 | 0.00 | 0.00 | 0.00 | 88 | 1015.1 |
| 20260503190524 | 63 | 346 | 1.7 | 4.3 | 0.00 | 0.00 | 0.00 | 88 | 1015.1 |
| 20260503190025 | 63 | 313 | 1.7 | 6.1 | 0.00 | 0.00 | 0.00 | 87 | 1015.2 |
| 20260503185524 | 63 | 293 | 1.7 | 6.1 | 0.00 | 0.00 | 0.00 | 88 | 1015.2 |
| 20260503185022 | 63 | 324 | 1.7 | 5.2 | 0.00 | 0.00 | 0.00 | 87 | 1015.1 |
| 20260503184522 | 63 | 324 | 1.7 | 5.2 | 0.00 | 0.00 | 0.00 | 87 | 1015.2 |
| 20260503184021 | 63 | 333 | 1.7 | 4.3 | 0.00 | 0.00 | 0.00 | 87 | 1015.3 |
| 20260503183521 | 64 | 284 | 1.7 | 4.3 | 0.00 | 0.00 | 0.00 | 86 | 1015.3 |
| 20260503183024 | 64 | 309 | 1.7 | 5.2 | 0.00 | 0.00 | 0.00 | 86 | 1015.2 |
| 20260503182520 | 64 | 299 | 1.7 | 7.0 | 0.00 | 0.00 | 0.00 | 86 | 1015.2 |
| 20260503182021 | 64 | 281 | 2.6 | 7.0 | 0.00 | 0.00 | 0.00 | 87 | 1015.1 |
| 20260503181520 | 63 | 277 | 2.6 | 5.2 | 0.00 | 0.00 | 0.00 | 87 | 1015.1 |
| 20260503181022 | 63 | 340 | 2.6 | 7.0 | 0.00 | 0.00 | 0.00 | 88 | 1015.2 |
| 20260503180519 | 63 | 297 | 1.7 | 6.1 | 0.00 | 0.00 | 0.00 | 88 | 1015.1 |
| 20260503180018 | 63 | 286 | 1.7 | 5.2 | 0.00 | 0.00 | 0.00 | 87 | 1015.1 |
| 20260503175517 | 63 | 275 | 1.7 | 5.2 | 0.00 | 0.00 | 0.00 | 87 | 1015.1 |
| 20260503175016 | 63 | 288 | 1.7 | 6.1 | 0.00 | 0.00 | 0.00 | 87 | 1015.2 |
| 20260503174519 | 64 | 317 | 2.6 | 7.0 | 0.00 | 0.00 | 0.00 | 87 | 1015.2 |
| 20260503174019 | 64 | 282 | 2.6 | 7.0 | 0.00 | 0.00 | 0.00 | 87 | 1015.2 |
| 20260503173515 | 64 | 332 | 2.6 | 7.0 | 0.00 | 0.00 | 0.00 | 87 | 1015.3 |
| 20260503173014 | 64 | 317 | 3.5 | 7.8 | 0.00 | 0.00 | 0.00 | 87 | 1015.3 |
| 20260503172517 | 64 | 311 | 3.5 | 7.8 | 0.00 | 0.00 | 0.00 | 87 | 1015.4 |
| 20260503172013 | 64 | 308 | 2.6 | 7.0 | 0.00 | 0.00 | 0.00 | 87 | 1015.5 |
| 20260503171511 | 64 | 342 | 2.6 | 5.2 | 0.00 | 0.00 | 0.00 | 87 | 1015.5 |
| 20260503171013 | 64 | 289 | 1.7 | 5.2 | 0.00 | 0.00 | 0.00 | 87 | 1015.6 |
| 20260503170512 | 64 | 323 | 2.6 | 4.3 | 0.00 | 0.00 | 0.00 | 87 | 1015.6 |